Regional Weather Roundup
Issued by NWS

Home | Current Version | Previous Version | Graphics & Text | Print | Product List | Glossary On
Versions: 1 2 3 4 5 6 7 8 9 10 11 12 13 14 15 16 17 18 19 20 21 22 23 24 25 26 27 28 29 30 31 32 33 34 35 36 37 38 39 40 41 42 43 44 45 46 47 48 49 50
000
ASUS43 KLOT 270908
RWRIL

ILLINOIS REGIONAL WEATHER ROUNDUP
NATIONAL WEATHER SERVICE CHICAGO/ROMEOVILLE IL
400 AM CDT FRI MAY 27 2016

NOTE: "FAIR" INDICATES FEW OR NO CLOUDS BELOW 12,000 FEET WITH NO
SIGNIFICANT WEATHER AND/OR OBSTRUCTIONS TO VISIBILITY.

* THESE STATIONS ARE NOT UNDER NWS QUALITY CONTROL. THEY ALSO MAY NOT
  REPORT WEATHER SUCH AS PRECIPITATION OR FOG.

ILZ001-002-007-009-015-016-024-271000-
NORTHWEST ILLINOIS

CITY           SKY/WX    TMP DP  RH WIND       PRES   REMARKS
MOLINE         LGT RAIN  64  61  90 NE8       29.83F
STERLING*      LGT RAIN  68  60  75 W18       29.88R
SAVANNA*       RAIN      64  62  90 W21G31    29.91R
$$

ILZ003-004-008-010-011-017-018-271000-
NORTH CENTRAL ILLINOIS

CITY           SKY/WX    TMP DP  RH WIND       PRES   REMARKS
ROCKFORD       CLOUDY    71  67  87 S12       29.90R
FREEPORT*      CLOUDY    70  67  89 S13       29.90R
ROCHELLE*      CLOUDY    69  67  92 SW8       29.90R
DE KALB*       CLOUDY    67  66  96 S8        29.90S
$$

ILZ005-006-012>014-019>023-271000-
NORTHEAST ILLINOIS

CITY           SKY/WX    TMP DP  RH WIND       PRES   REMARKS
CHICAGO-OHARE  MOCLDY    69  65  86 S7        29.89S
CHICAGO-MIDWAY CLOUDY    70  63  78 S9        29.90S
AURORA         CLOUDY    69  65  86 SE5       29.89F
LANSING*       MOCLDY    65  62  89 S3        29.91F
JOLIET*        CLOUDY    69  65  88 CALM      29.90S
WAUKEGAN       MOCLDY    71  67  87 SW12      29.88R
DUPAGE AIRPORT CLOUDY    68  63  84 S6        29.89S
KANKAKEE*      MOCLDY    67  63  87 S7        29.92S
WHEELING       CLOUDY    71  66  84 S9        29.91R
MORRIS*        CLOUDY    69  64  83 CALM      29.89R
ROMEOVILLE*    CLOUDY    67  63  87 SE5       29.90S
NORTHERLY ISL    N/A     70  62  76 SW7         N/A
NORTHERLY ISL    N/A     70  62  76 SW7         N/A
$$

LMZ740>746-271000-
SOUTHERN LAKE MICHIGAN

STATION/POSITION SKY/WX   TEMP    WIND        PRES    VSBY  WAVE
                          AIR SEA DIR/SP/G                  HT/PER
                          (F)     (DEG/KT/KT) (MB)    (MI)  (FT/S)
SOUTHERN BUOY              55 50  170/ 10/ 12 1011.7F         1
WILMETTE HARBOR            65 58  230/  8/ 10   N/A           1/ 3
HARRISON CRIB              71     200/ 17/ 18   N/A
BURNHAM HARBOR             70     200/  6/ 11   N/A
CALUMET HARBOR             69     190/  8/ 11 1012.2
BURNS HARBOR               68     180/  9/ 12 1013.5S
MICHIGAN CITY              68     170/  9/ 12   N/A
MICHIGAN CITY 6N           63 59  190/  8/ 10   N/A           1
ST. JOSEPH                 64 61  170/  6/  8   N/A           1
$$

ILZ025>027-034>036-040-047-049-050-058-095>099-271000-
WEST-CENTRAL ILLINOIS

CITY           SKY/WX    TMP DP  RH WIND       PRES   REMARKS
QUINCY         MOCLDY    64  63  96 SE8       29.83F
GALESBURG*     MOCLDY    62  61  96 NE6       29.84F
MACOMB*        CLOUDY    63  62  97 SE3       29.87R
JACKSONVILLE*  CLOUDY    66  64  93 CALM      29.88F
PITTSFIELD*    CLOUDY    65  65  98 E6        29.87F
$$

ILZ028>032-037-038-041>044-048-051>054-059>061-271000-
CENTRAL ILLINOIS

CITY           SKY/WX    TMP DP  RH WIND       PRES   REMARKS
PONTIAC        CLOUDY    69  66  90 S8        29.91R
BLOOMINGTON    CLOUDY    67  66  96 S10       29.92S
DECATUR        CLOUDY    68  63  84 SW8       29.92S
PEORIA         MOCLDY    67  61  81 SW5       29.88S
LACON*         MOCLDY    70  61  73 CALM      29.86F
LINCOLN*       LGT RAIN  69  67  93 S6        29.92R
SPRINGFIELD    PTCLDY    69  65  86 S8        29.90S
TAYLORVILLE    LGT RAIN  67  64  89 SW10      29.90F
$$

ILZ033-039-045-046-055>057-062-063-271000-
EAST-CENTRAL ILLINOIS

CITY           SKY/WX    TMP DP  RH WIND       PRES   REMARKS
CHAMPAIGN      CLOUDY    65  63  93 S6        29.94S
RANTOUL*       CLOUDY    67  65  93 S6        29.94S
MATTOON        CLOUDY    66  62  87 S9        29.94R
PARIS*         CLOUDY    65  64  96 S3        29.97R
$$

ILZ079-100>102-271000-
SOUTHWEST ILLINOIS

CITY           SKY/WX    TMP DP  RH WIND       PRES   REMARKS
ALTON          LGT RAIN  66  65  96 CALM      29.90S
BELLEVILLE     LGT RAIN  66  66 100 E6        29.89R
CAHOKIA*       LGT RAIN  68  65  90 CALM      29.89S
SPARTA*        RAIN      66  65  95 CALM      29.92S
$$

ILZ064>066-069>071-074>076-080>082-084>086-088>090-092>094-271000-
SOUTH-CENTRAL ILLINOIS

CITY           SKY/WX    TMP DP  RH WIND       PRES   REMARKS
CARBONDALE     CLOUDY    67  62  84 S7        29.91R
CAIRO*         RAIN      66  65  99 S3        29.92R
EFFINGHAM*     CLOUDY    66  65  99 E3        29.96S
MARION         LGT RAIN  68  64  88 SW5       29.92R
MT. VERNON     CLOUDY    63  59  88 E3        29.94R
CENTRALIA*     CLOUDY    66  65  99 E6        29.91S
SALEM*         CLOUDY    67  64  91 CALM      29.93R
METROPOLIS*    CLOUDY    66  66 100 CALM      29.94R
$$

ILZ067-068-072-073-078-083-087-091-271000-
SOUTHEAST ILLINOIS

CITY           SKY/WX    TMP DP  RH WIND       PRES   REMARKS
LAWRENCEVILLE  CLOUDY    66  64  93 SE6       29.96S
FLORA*         CLOUDY    66  64  93 CALM      29.95R
FAIRFIELD*     RAIN      66  64  94 E6        29.93S
HARRISBURG*    LGT RAIN  66  64  94 E7        29.93F
ROBINSON*      CLOUDY    65  64  96 SE6       29.97R
CARMI*         CLOUDY    65  64  95 SE6       29.94F
$$

ABBREVIATIONS USED IN REMARKS
   TC - TEMPERATURE IN CELSIUS
  WCI - WIND CHILL INDEX
   HX - HEAT INDEX
  VSB - VISIBILITY
$$





USA.gov is the U.S. government's official web portal to all federal, state and local government web resources and services.